EW4363 Weather Reports


Display with metric or nautical units.
time (UTC)temp
F
wind
direction
speed
MPH
gust
MPH
rain 1hr
in
rain 24hr
in
rain mn
in
humidity
%
barometer
mb
20220630075804 77 274 0.0 2.0 0.00 0.00 0.00 56 1011.2
20220630075304 77 271 1.0 2.0 0.00 0.00 0.00 56 1011.2
20220630074804 77 271 0.0 3.0 0.00 0.00 0.00 57 1011.3
20220630074304 77 267 2.0 5.0 0.00 0.00 0.00 56 1011.3
20220630073804 77 275 1.0 3.0 0.00 0.00 0.00 56 1011.3
20220630073304 76 253 0.0 3.0 0.00 0.00 0.00 58 1011.2
20220630072805 76 271 1.0 3.0 0.00 0.00 0.00 58 1011.2
20220630072304 76 275 2.0 5.0 0.00 0.00 0.00 58 1011.2
20220630071804 75 265 1.0 6.0 0.00 0.00 0.00 59 1011.2
20220630071303 75 269 1.0 6.0 0.00 0.00 0.00 59 1011.2
20220630070804 75 272 1.0 3.0 0.00 0.00 0.00 59 1011.1
20220630070303 75 277 0.0 3.0 0.00 0.00 0.00 60 1011.1
20220630065803 74 274 0.0 2.0 0.00 0.00 0.00 62 1011.1
20220630065304 73 271 1.0 2.0 0.00 0.00 0.00 63 1011.1
20220630064804 73 281 1.0 3.0 0.00 0.00 0.00 64 1011.1
20220630064304 72 289 1.0 3.0 0.00 0.00 0.00 66 1011.2
20220630063803 72 269 2.0 3.0 0.00 0.00 0.00 66 1011.2
20220630063304 72 271 2.0 6.0 0.00 0.00 0.00 67 1011.2
20220630062805 72 335 0.0 1.0 0.00 0.00 0.00 70 1011.1
20220630062304 72 329 0.0 0.0 0.00 0.00 0.00 71 1011.0
20220630061804 72 329 0.0 0.0 0.00 0.00 0.00 72 1010.9
20220630061305 71 329 0.0 0.0 0.00 0.00 0.00 74 1010.8
20220630060804 71 329 0.0 1.0 0.00 0.00 0.00 74 1010.8
20220630060304 71 330 0.0 1.0 0.00 0.00 0.00 75 1010.9
20220630055804 70 325 1.0 2.0 0.00 0.00 0.00 75 1010.8
20220630055304 70 280 1.0 3.0 0.00 0.00 0.00 73 1010.9
20220630054804 70 273 1.0 3.0 0.00 0.00 0.00 72 1010.9
20220630054303 69 271 2.0 5.0 0.00 0.00 0.00 73 1011.0
20220630053804 69 253 0.0 3.0 0.00 0.00 0.00 75 1011.0
20220630053303 69 264 0.0 0.0 0.00 0.00 0.00 77 1011.1
20220630052804 68 264 1.0 3.0 0.00 0.00 0.00 76 1011.1
20220630052304 68 272 1.0 3.0 0.00 0.00 0.00 76 1011.0
20220630051804 68 274 1.0 3.0 0.00 0.00 0.00 77 1011.0
20220630051304 67 270 1.0 2.0 0.00 0.00 0.00 78 1011.0
20220630050804 67 274 1.0 2.0 0.00 0.00 0.00 81 1011.0
20220630050303 68 261 0.0 0.0 0.00 0.00 0.00 81 1010.9
20220630045804 68 261 0.0 1.0 0.00 0.00 0.00 80 1010.9
20220630045304 68 273 0.0 0.0 0.00 0.00 0.00 80 1010.8
20220630044804 69 273 0.0 1.0 0.00 0.00 0.00 79 1010.9
20220630044306 69 273 0.0 2.0 0.00 0.00 0.00 79 1011.0
20220630043805 69 326 0.0 2.0 0.00 0.00 0.00 78 1011.0
20220630043304 69 253 0.0 2.0 0.00 0.00 0.00 76 1011.0
20220630042804 69 265 0.0 2.0 0.00 0.00 0.00 77 1011.1
20220630042304 69 291 0.0 2.0 0.00 0.00 0.00 77 1011.1
20220630041804 69 274 0.0 1.0 0.00 0.00 0.00 78 1011.0
20220630041304 68 275 0.0 2.0 0.00 0.00 0.00 79 1011.0
20220630040804 68 261 1.0 3.0 0.00 0.00 0.00 81 1011.0
20220630040303 68 318 0.0 0.0 0.00 0.00 0.00 82 1011.0
20220630035803 68 318 0.0 1.0 0.00 0.00 0.00 83 1011.0
20220630035304 68 318 0.0 0.0 0.00 0.00 0.00 83 1011.0
20220630034803 68 318 0.0 0.0 0.00 0.00 0.00 82 1011.0
20220630034303 69 318 0.0 0.0 0.00 0.00 0.00 82 1010.9
20220630033805 69 318 0.0 0.0 0.00 0.00 0.00 82 1011.0
20220630033304 69 318 0.0 1.0 0.00 0.00 0.00 81 1011.0
20220630032804 69 318 0.0 0.0 0.00 0.00 0.00 81 1011.0
20220630032304 69 317 0.0 0.0 0.00 0.00 0.00 81 1011.1
20220630031804 69 317 0.0 0.0 0.00 0.00 0.00 81 1011.1
20220630031304 69 317 0.0 0.0 0.00 0.00 0.00 81 1011.1
20220630030804 70 317 0.0 0.0 0.00 0.00 0.00 80 1011.1
20220630030304 70 317 0.0 0.0 0.00 0.00 0.00 80 1011.1
20220630025804 70 317 0.0 0.0 0.00 0.00 0.00 80 1011.0
20220630025304 70 317 0.0 0.0 0.00 0.00 0.00 80 1011.1
20220630024804 70 317 0.0 0.0 0.00 0.00 0.00 81 1011.1
20220630024303 70 317 0.0 0.0 0.00 0.00 0.00 80 1011.1
20220630023804 70 317 0.0 0.0 0.00 0.00 0.00 80 1011.1
20220630023304 70 317 0.0 0.0 0.00 0.00 0.00 80 1011.1
20220630022804 71 317 0.0 0.0 0.00 0.00 0.00 79 1011.1
20220630022304 71 318 0.0 0.0 0.00 0.00 0.00 78 1011.1
20220630021804 71 319 0.0 0.0 0.00 0.00 0.00 78 1011.1
20220630021304 71 319 0.0 0.0 0.00 0.00 0.00 78 1011.1
20220630020804 71 319 0.0 0.0 0.00 0.00 0.00 78 1011.1
20220630020304 71 319 0.0 0.0 0.00 0.00 0.00 78 1011.2
20220630015804 71 319 0.0 1.0 0.00 0.00 0.00 78 1011.1
20220630015304 71 324 0.0 0.0 0.00 0.00 0.00 78 1011.2
20220630014803 72 324 0.0 0.0 0.00 0.00 0.00 78 1011.3
20220630014304 72 324 0.0 0.0 0.00 0.00 0.00 78 1011.4
20220630013803 72 324 0.0 0.0 0.00 0.00 0.00 77 1011.5
20220630013304 72 324 0.0 1.0 0.00 0.00 0.00 77 1011.6
20220630012803 72 324 0.0 0.0 0.00 0.00 0.00 77 1011.6
20220630012303 72 324 0.0 0.0 0.00 0.00 0.00 77 1011.7
20220630011803 72 324 0.0 0.0 0.00 0.00 0.00 76 1011.7
20220630011304 72 324 0.0 0.0 0.00 0.00 0.00 77 1011.7
20220630010804 73 324 0.0 0.0 0.00 0.00 0.00 77 1011.7
20220630010305 73 324 0.0 0.0 0.00 0.00 0.00 77 1011.8
20220630005804 73 324 0.0 0.0 0.00 0.00 0.00 77 1011.8
20220630005305 72 324 0.0 0.0 0.00 0.00 0.00 77 1011.9
20220630004804 72 324 0.0 0.0 0.00 0.00 0.00 77 1011.9
20220630004304 72 324 0.0 0.0 0.00 0.00 0.00 77 1012.0
20220630003804 72 324 0.0 0.0 0.00 0.00 0.00 77 1012.1
20220630003305 72 324 0.0 2.0 0.00 0.00 0.00 77 1012.0
20220630002803 72 324 1.0 2.0 0.00 0.00 0.00 78 1012.0
20220630002304 73 323 0.0 3.0 0.00 0.00 0.00 77 1012.0
20220630001803 73 320 0.0 2.0 0.00 0.00 0.00 78 1012.1
20220630001304 73 319 0.0 1.0 0.00 0.00 0.00 77 1012.2
20220630000804 73 319 1.0 2.0 0.00 0.00 0.00 77 1012.2
20220630000304 73 272 0.0 1.0 0.00 0.00 0.00 76 1012.2
20220629235804 73 272 0.0 0.0 0.00 0.00 0.00 76 1012.2
20220629235304 73 272 0.0 1.0 0.00 0.00 0.00 76 1012.3
20220629234803 73 272 0.0 1.0 0.00 0.00 0.00 76 1012.2
20220629234304 73 272 0.0 1.0 0.00 0.00 0.00 77 1012.2
20220629233803 73 272 0.0 1.0 0.00 0.00 0.00 77 1012.1
20220629233304 73 272 0.0 0.0 0.00 0.00 0.00 77 1012.2
20220629232804 73 272 0.0 2.0 0.00 0.00 0.00 77 1012.4
20220629232303 73 253 0.0 1.0 0.00 0.00 0.00 77 1012.2
20220629231804 73 251 0.0 1.0 0.00 0.00 0.00 77 1012.1
20220629231303 74 252 0.0 0.0 0.00 0.00 0.00 77 1012.0
20220629230804 74 252 0.0 0.0 0.00 0.00 0.00 77 1012.1
20220629230304 74 252 0.0 0.0 0.00 0.00 0.00 77 1012.1
20220629225803 74 252 0.0 1.0 0.00 0.00 0.00 77 1012.0
20220629225304 74 252 0.0 1.0 0.00 0.00 0.00 77 1012.0
20220629224804 74 251 0.0 1.0 0.00 0.00 0.00 77 1012.1
20220629224304 74 250 0.0 2.0 0.00 0.00 0.00 77 1012.1
20220629223804 74 250 0.0 1.0 0.00 0.00 0.00 78 1012.0
20220629223304 74 251 0.0 1.0 0.00 0.00 0.00 78 1012.1
20220629222804 74 251 0.0 2.0 0.00 0.00 0.00 78 1012.3
20220629222304 74 250 0.0 2.0 0.00 0.00 0.00 78 1012.3
20220629221804 74 250 1.0 2.0 0.00 0.00 0.00 78 1012.3
20220629221304 74 330 0.0 0.0 0.00 0.00 0.00 77 1012.2
20220629220826 74 330 0.0 2.0 0.00 0.00 0.00 77 1012.1
20220629220305 74 307 0.0 2.0 0.00 0.00 0.00 77 1012.1
20220629215804 74 314 0.0 2.0 0.00 0.00 0.00 76 1012.1
20220629215304 74 324 0.0 2.0 0.00 0.00 0.00 76 1012.0
20220629214804 74 265 0.0 2.0 0.00 0.00 0.00 76 1011.9
20220629214303 74 338 0.0 2.0 0.00 0.00 0.00 76 1011.9
20220629213803 74 252 1.0 2.0 0.00 0.00 0.00 75 1012.0
20220629213304 74 250 1.0 3.0 0.00 0.00 0.00 73 1012.0
20220629212804 75 328 1.0 3.0 0.00 0.00 0.00 73 1011.8
20220629212305 75 321 1.0 3.0 0.00 0.00 0.00 71 1011.7
20220629211804 75 329 0.0 2.0 0.00 0.00 0.00 69 1011.8
20220629211304 75 330 0.0 2.0 0.00 0.00 0.00 69 1011.7
20220629210805 75 328 1.0 2.0 0.00 0.00 0.00 68 1011.7
20220629210304 75 330 1.0 3.0 0.00 0.00 0.00 68 1011.6
20220629205803 75 319 1.0 3.0 0.00 0.00 0.00 67 1011.6
20220629205304 76 322 1.0 3.0 0.00 0.00 0.00 66 1011.6
20220629204804 76 328 0.0 3.0 0.00 0.00 0.00 66 1011.5
20220629204304 76 323 2.0 3.0 0.00 0.00 0.00 65 1011.4
20220629203804 76 329 1.0 3.0 0.00 0.00 0.00 63 1011.3
20220629203304 77 331 0.0 2.0 0.00 0.00 0.00 61 1011.2
20220629202804 77 320 1.0 3.0 0.00 0.00 0.00 60 1011.0
20220629202304 77 331 1.0 3.0 0.00 0.00 0.00 59 1010.7
20220629201804 77 326 2.0 3.0 0.00 0.00 0.00 59 1010.5
20220629201304 77 323 2.0 3.0 0.00 0.00 0.00 56 1010.4
20220629200804 78 326 0.0 3.0 0.00 0.00 0.00 55 1010.4
20220629200304 78 324 1.0 3.0 0.00 0.00 0.00 54 1010.2
20220629195804 78 325 1.0 3.0 0.00 0.00 0.00 54 1010.1
20220629195304 78 324 1.0 5.0 0.00 0.00 0.00 53 1010.1
20220629194803 78 327 0.0 2.0 0.00 0.00 0.00 51 1010.1
20220629194304 79 333 0.0 2.0 0.00 0.00 0.00 51 1010.2
20220629193803 79 325 1.0 3.0 0.00 0.00 0.00 51 1010.2
20220629193304 79 323 2.0 3.0 0.00 0.00 0.00 51 1010.4
20220629192804 79 315 2.0 5.0 0.00 0.00 0.00 50 1010.4
20220629192304 79 314 2.0 5.0 0.00 0.00 0.00 50 1010.4
20220629191804 80 324 1.0 5.0 0.00 0.00 0.00 51 1010.4
20220629191304 80 313 1.0 3.0 0.00 0.00 0.00 50 1010.4
20220629190804 80 324 1.0 3.0 0.00 0.00 0.00 50 1010.5
20220629190304 81 324 1.0 3.0 0.00 0.00 0.00 50 1010.4
20220629185804 81 321 2.0 6.0 0.00 0.00 0.00 50 1010.5
20220629185304 81 326 2.0 5.0 0.00 0.00 0.00 49 1010.4
20220629184804 81 322 1.0 6.0 0.00 0.00 0.00 49 1010.4
20220629184305 82 321 3.0 6.0 0.00 0.00 0.00 49 1010.4
20220629183803 82 317 2.0 3.0 0.00 0.00 0.00 49 1010.4
20220629183304 82 325 2.0 3.0 0.00 0.00 0.00 48 1010.4
20220629182804 83 326 2.0 5.0 0.00 0.00 0.00 47 1010.4
20220629182304 84 320 2.0 5.0 0.00 0.00 0.00 46 1010.4
20220629181804 84 318 1.0 3.0 0.00 0.00 0.00 45 1010.4
20220629181304 84 306 2.0 6.0 0.00 0.00 0.00 44 1010.4
20220629180804 84 317 3.0 6.0 0.00 0.00 0.00 44 1010.4
20220629180304 84 326 4.0 8.0 0.00 0.00 0.00 44 1010.5
20220629175804 85 318 3.0 6.0 0.00 0.00 0.00 44 1010.5
20220629175304 85 321 3.0 5.0 0.00 0.00 0.00 43 1010.5
20220629174804 85 322 2.0 5.0 0.00 0.00 0.00 42 1010.5
20220629174304 85 324 3.0 7.0 0.00 0.00 0.00 43 1010.4
20220629173805 85 326 3.0 7.0 0.00 0.00 0.00 42 1010.4
20220629173304 86 323 2.0 7.0 0.00 0.00 0.00 43 1010.4
20220629172804 86 318 3.0 7.0 0.00 0.00 0.00 42 1010.3
20220629172304 86 316 2.0 7.0 0.00 0.00 0.00 40 1010.4
20220629171804 86 317 3.0 6.0 0.00 0.00 0.00 38 1010.4
20220629170804 86 316 3.0 6.0 0.00 0.00 0.00 41 1010.4
20220629170304 86 315 2.0 6.0 0.00 0.00 0.00 42 1010.4
20220629165804 86 312 3.0 7.0 0.00 0.00 0.00 40 1010.4
20220629165304 86 321 5.0 8.0 0.00 0.00 0.00 38 1010.6
20220629164805 87 318 3.0 9.0 0.00 0.00 0.00 39 1010.6
20220629164304 87 302 4.0 7.0 0.00 0.00 0.00 38 1010.7
20220629163803 87 316 5.0 8.0 0.00 0.00 0.00 39 1010.8
20220629163305 87 317 5.0 10.0 0.00 0.00 0.00 38 1010.8
20220629162811 88 322 3.0 12.0 0.00 0.00 0.00 38 1010.8
20220629162304 88 326 2.0 8.0 0.00 0.00 0.00 41 1010.8
20220629161804 88 308 2.0 8.0 0.00 0.00 0.00 42 1010.8
20220629161304 88 319 3.0 7.0 0.00 0.00 0.00 41 1010.8
20220629160804 88 309 4.0 7.0 0.00 0.00 0.00 41 1010.9
20220629160304 88 320 3.0 7.0 0.00 0.00 0.00 41 1010.9
20220629155804 88 316 4.0 10.0 0.00 0.00 0.00 42 1010.8
20220629155304 89 320 2.0 8.0 0.00 0.00 0.00 42 1010.8
20220629154804 89 324 3.0 6.0 0.00 0.00 0.00 42 1010.9
20220629154304 88 272 2.0 7.0 0.00 0.00 0.00 42 1010.9
20220629153803 88 314 5.0 8.0 0.00 0.00 0.00 43 1010.9
20220629153303 88 312 3.0 8.0 0.00 0.00 0.00 44 1011.0
20220629152803 88 312 5.0 9.0 0.00 0.00 0.00 45 1011.0
20220629152304 88 303 3.0 6.0 0.00 0.00 0.00 45 1011.1
20220629151805 88 315 3.0 10.0 0.00 0.00 0.00 45 1011.1
20220629151304 88 317 2.0 9.0 0.00 0.00 0.00 45 1011.1
20220629150804 88 317 3.0 8.0 0.00 0.00 0.00 45 1011.2
20220629150304 88 308 3.0 8.0 0.00 0.00 0.00 46 1011.2
20220629145804 88 305 2.0 6.0 0.00 0.00 0.00 46 1011.3
20220629145303 88 311 4.0 8.0 0.00 0.00 0.00 46 1011.4
20220629144803 89 307 3.0 8.0 0.00 0.00 0.00 45 1011.4
20220629144304 89 310 2.0 12.0 0.00 0.00 0.00 44 1011.4
20220629143804 89 322 3.0 7.0 0.00 0.00 0.00 43 1011.4
20220629143304 89 320 3.0 7.0 0.00 0.00 0.00 43 1011.4
20220629142804 88 318 3.0 9.0 0.00 0.00 0.00 43 1011.6
20220629142304 89 318 5.0 9.0 0.00 0.00 0.00 40 1011.5
20220629141804 89 312 3.0 8.0 0.00 0.00 0.00 40 1011.6
20220629141305 89 303 2.0 12.0 0.00 0.00 0.00 40 1011.6
20220629140804 89 316 4.0 8.0 0.00 0.00 0.00 40 1011.6
20220629140304 89 322 3.0 8.0 0.00 0.00 0.00 38 1011.7
20220629135803 89 320 2.0 7.0 0.00 0.00 0.00 39 1011.7
20220629135304 89 318 3.0 7.0 0.00 0.00 0.00 39 1011.8
20220629134804 90 314 2.0 9.0 0.00 0.00 0.00 38 1011.9
20220629134303 89 308 3.0 7.0 0.00 0.00 0.00 39 1011.9
20220629133804 89 325 3.0 10.0 0.00 0.00 0.00 39 1011.9
20220629133304 89 315 3.0 9.0 0.00 0.00 0.00 39 1011.9
20220629132803 89 322 4.0 8.0 0.00 0.00 0.00 40 1012.1
20220629132304 89 308 2.0 7.0 0.00 0.00 0.00 38 1012.1
20220629131804 89 315 3.0 7.0 0.00 0.00 0.00 36 1012.2
20220629131304 89 308 4.0 9.0 0.00 0.00 0.00 38 1012.2
20220629130804 89 317 3.0 7.0 0.00 0.00 0.00 39 1012.3
20220629130304 89 292 3.0 9.0 0.00 0.00 0.00 40 1012.3
20220629125804 89 326 3.0 8.0 0.00 0.00 0.00 41 1012.4
20220629125303 89 320 3.0 7.0 0.00 0.00 0.00 41 1012.4
20220629124804 89 315 3.0 8.0 0.00 0.00 0.00 38 1012.4
20220629124304 89 311 3.0 6.0 0.00 0.00 0.00 40 1012.5
20220629123804 89 318 2.0 9.0 0.00 0.00 0.00 38 1012.6
20220629123304 89 321 3.0 9.0 0.00 0.00 0.00 39 1012.6
20220629122804 89 319 3.0 7.0 0.00 0.00 0.00 40 1012.6
20220629122304 89 321 3.0 9.0 0.00 0.00 0.00 42 1012.7
20220629121805 89 320 2.0 7.0 0.00 0.00 0.00 41 1012.6
20220629121304 89 304 3.0 10.0 0.00 0.00 0.00 42 1012.7
20220629120808 89 310 3.0 7.0 0.00 0.00 0.00 43 1012.7
20220629120304 88 314 3.0 9.0 0.00 0.00 0.00 44 1012.8
20220629115805 88 309 3.0 12.0 0.00 0.00 0.00 44 1012.7
20220629115304 88 277 4.0 7.0 0.00 0.00 0.00 42 1012.8
20220629114804 89 320 5.0 8.0 0.00 0.00 0.00 42 1012.9
20220629114304 89 299 2.0 7.0 0.00 0.00 0.00 42 1012.9
20220629113804 89 317 4.0 10.0 0.00 0.00 0.00 42 1012.9
20220629113304 88 262 2.0 5.0 0.00 0.00 0.00 43 1012.9
20220629112804 88 285 3.0 8.0 0.00 0.00 0.00 43 1013.0
20220629112304 88 324 3.0 12.0 0.00 0.00 0.00 45 1013.1
20220629111804 89 278 3.0 9.0 0.00 0.00 0.00 43 1013.2
20220629111304 89 317 4.0 9.0 0.00 0.00 0.00 44 1013.1
20220629110804 89 291 3.0 6.0 0.00 0.00 0.00 45 1013.1
20220629110303 89 318 2.0 7.0 0.00 0.00 0.00 46 1013.2
20220629105806 89 329 2.0 5.0 0.00 0.00 0.00 45 1013.2
20220629105304 89 313 1.0 5.0 0.00 0.00 0.00 43 1013.2
20220629104804 89 299 3.0 6.0 0.00 0.00 0.00 44 1013.3
20220629104303 89 322 2.0 3.0 0.00 0.00 0.00 44 1013.3
20220629103803 89 331 1.0 3.0 0.00 0.00 0.00 45 1013.4
20220629103304 88 294 2.0 5.0 0.00 0.00 0.00 44 1013.5
20220629102803 88 317 2.0 5.0 0.00 0.00 0.00 44 1013.4
20220629102305 88 302 0.0 3.0 0.00 0.00 0.00 44 1013.5
20220629101804 87 321 1.0 3.0 0.00 0.00 0.00 44 1013.6
20220629101304 87 320 1.0 3.0 0.00 0.00 0.00 44 1013.6
20220629100804 87 299 2.0 3.0 0.00 0.00 0.00 44 1013.7
20220629100307 87 311 1.0 3.0 0.00 0.00 0.00 45 1013.7
20220629095804 87 303 1.0 3.0 0.00 0.00 0.00 44 1013.7
20220629095304 86 307 0.0 3.0 0.00 0.00 0.00 45 1013.8
20220629094804 86 319 1.0 6.0 0.00 0.00 0.00 45 1013.9
20220629094304 85 285 1.0 3.0 0.00 0.00 0.00 45 1013.9
20220629093804 85 321 3.0 5.0 0.00 0.00 0.00 45 1014.0
20220629093304 85 302 0.0 1.0 0.00 0.00 0.00 46 1014.0
20220629092804 84 293 0.0 2.0 0.00 0.00 0.00 46 1014.1
20220629092304 84 325 0.0 3.0 0.00 0.00 0.00 46 1014.1
20220629091804 84 334 1.0 3.0 0.00 0.00 0.00 46 1014.2
20220629091303 83 322 2.0 5.0 0.00 0.00 0.00 46 1014.2
20220629090804 84 287 2.0 3.0 0.00 0.00 0.00 46 1014.3
20220629090303 83 317 0.0 3.0 0.00 0.00 0.00 47 1014.3
20220629085804 82 319 1.0 3.0 0.00 0.00 0.00 47 1014.4
20220629085303 82 309 1.0 2.0 0.00 0.00 0.00 47 1014.4
20220629084805 81 274 1.0 2.0 0.00 0.00 0.00 48 1014.5
20220629084304 81 324 0.0 1.0 0.00 0.00 0.00 48 1014.5
20220629083804 81 324 1.0 2.0 0.00 0.00 0.00 49 1014.6
20220629083304 80 265 1.0 3.0 0.00 0.00 0.00 49 1014.6
20220629082804 80 328 0.0 2.0 0.00 0.00 0.00 48 1014.6
20220629082305 81 329 0.0 2.0 0.00 0.00 0.00 48 1014.6
20220629081804 81 328 1.0 3.0 0.00 0.00 0.00 49 1014.7
20220629081304 81 326 0.0 2.0 0.00 0.00 0.00 49 1014.7
20220629080804 80 323 1.0 3.0 0.00 0.00 0.00 49 1014.8
20220629080304 80 326 0.0 2.0 0.00 0.00 0.00 50 1014.8